iso_date,epoch_date,Year,Hour,Min,DOY,POS_DOY,Lat,Lon,BP,Ts,Ta,has_bp,has_ts,has_ta,BuoyID,Buoy_Type,Buoy_Owner,Logistics,Hemisphere
2014-05-21T22:12:00Z,1400710320,2014,22,12,141.925,139.081,70.4836,-163.1602,1026.7,5.7,-999.0,yes,yes,no,300234061367150,SVP,unknown,Healy,North
2014-05-21T22:59:31Z,1400713171,2014,23,0,141.958,139.114,70.4836,-163.1602,1026.6,4.6,-999.0,yes,yes,no,300234061367150,SVP,unknown,Healy,North
2014-05-22T00:00:00Z,1400716800,2014,0,0,142.0,142.0,70.5352,-163.5386,1026.5,4.7,-999.0,yes,yes,no,300234061367150,SVP,unknown,Healy,North
2014-05-22T01:00:28Z,1400720429,2014,1,0,142.042,142.0,70.5352,-163.5386,1026.3,4.8,-999.0,yes,yes,no,300234061367150,SVP,unknown,Healy,North
2014-05-22T01:59:31Z,1400723971,2014,2,0,142.083,142.0,70.5352,-163.5386,1026.2,5.0,-999.0,yes,yes,no,300234061367150,SVP,unknown,Healy,North
2014-05-22T03:00:00Z,1400727600,2014,3,0,142.125,142.125,70.5872,-163.5398,1025.9,3.5,-999.0,yes,yes,no,300234061367150,SVP,unknown,Healy,North
2014-05-22T04:00:28Z,1400731229,2014,4,0,142.167,142.125,70.5872,-163.5398,1025.9,1.9,-999.0,yes,yes,no,300234061367150,SVP,unknown,Healy,North
2014-05-22T04:59:31Z,1400734771,2014,5,0,142.208,142.125,70.5872,-163.5398,1025.9,1.8,-999.0,yes,yes,no,300234061367150,SVP,unknown,Healy,North
2014-05-22T06:00:00Z,1400738400,2014,6,0,142.25,142.25,70.6676,-164.1324,1025.8,0.7,-999.0,yes,yes,no,300234061367150,SVP,unknown,Healy,North
2014-05-22T07:00:28Z,1400742029,2014,7,0,142.292,142.25,70.6676,-164.1324,1025.7,0.6,-999.0,yes,yes,no,300234061367150,SVP,unknown,Healy,North
2014-05-22T07:59:31Z,1400745571,2014,8,0,142.333,142.25,70.6676,-164.1324,1025.8,0.3,-999.0,yes,yes,no,300234061367150,SVP,unknown,Healy,North
2014-05-22T09:00:00Z,1400749200,2014,9,0,142.375,142.375,70.7488,-164.6596,1025.9,-0.2,-999.0,yes,yes,no,300234061367150,SVP,unknown,Healy,North
2014-05-22T10:00:28Z,1400752829,2014,10,0,142.417,142.375,70.7488,-164.6596,1026.0,-0.2,-999.0,yes,yes,no,300234061367150,SVP,unknown,Healy,North
2014-05-22T10:59:31Z,1400756371,2014,11,0,142.458,142.375,70.7488,-164.6596,1025.8,-0.2,-999.0,yes,yes,no,300234061367150,SVP,unknown,Healy,North
2014-05-22T12:00:00Z,1400760000,2014,12,0,142.5,142.5,70.8296,-165.3292,1025.6,-0.3,-999.0,yes,yes,no,300234061367150,SVP,unknown,Healy,North
2014-05-22T13:00:28Z,1400763629,2014,13,0,142.542,142.5,70.8296,-165.3292,1025.3,-0.6,-999.0,yes,yes,no,300234061367150,SVP,unknown,Healy,North
2014-05-22T13:59:31Z,1400767171,2014,14,0,142.583,142.5,70.8296,-165.3292,1024.9,-0.5,-999.0,yes,yes,no,300234061367150,SVP,unknown,Healy,North
2014-05-22T15:00:00Z,1400770800,2014,15,0,142.625,142.625,70.8852,-165.2282,1024.6,-0.6,-999.0,yes,yes,no,300234061367150,SVP,unknown,Healy,North
2014-05-22T16:00:28Z,1400774429,2014,16,0,142.667,142.625,70.8852,-165.2282,1024.5,-0.7,-999.0,yes,yes,no,300234061367150,SVP,unknown,Healy,North
2014-05-22T16:59:31Z,1400777971,2014,17,0,142.708,142.625,70.8852,-165.2282,1024.2,-0.7,-999.0,yes,yes,no,300234061367150,SVP,unknown,Healy,North
2014-05-22T18:00:00Z,1400781600,2014,18,0,142.75,142.75,70.9108,-164.9984,1023.6,-0.5,-999.0,yes,yes,no,300234061367150,SVP,unknown,Healy,North
2014-05-22T19:00:28Z,1400785229,2014,19,0,142.792,142.75,70.9108,-164.9984,1023.2,0.6,-999.0,yes,yes,no,300234061367150,SVP,unknown,Healy,North
2014-05-22T19:59:31Z,1400788771,2014,20,0,142.833,142.75,70.9108,-164.9984,1023.1,0.6,-999.0,yes,yes,no,300234061367150,SVP,unknown,Healy,North
2014-05-22T21:00:00Z,1400792400,2014,21,0,142.875,142.875,70.9114,-164.9976,1022.5,0.9,-999.0,yes,yes,no,300234061367150,SVP,unknown,Healy,North
2014-05-22T22:00:28Z,1400796029,2014,22,0,142.917,142.875,70.9114,-164.9976,1022.3,1.1,-999.0,yes,yes,no,300234061367150,SVP,unknown,Healy,North
2014-05-22T22:59:31Z,1400799571,2014,23,0,142.958,142.875,70.9114,-164.9976,1022.3,0.9,-999.0,yes,yes,no,300234061367150,SVP,unknown,Healy,North
2014-05-23T00:00:00Z,1400803200,2014,0,0,143.0,143.0,70.9126,-164.9934,1021.7,1.1,-999.0,yes,yes,no,300234061367150,SVP,unknown,Healy,North
2014-05-23T01:00:28Z,1400806829,2014,1,0,143.042,143.0,70.9126,-164.9934,1021.4,1.3,-999.0,yes,yes,no,300234061367150,SVP,unknown,Healy,North
2014-05-23T01:59:31Z,1400810371,2014,2,0,143.083,143.0,70.9126,-164.9934,1021.0,1.0,-999.0,yes,yes,no,300234061367150,SVP,unknown,Healy,North
2014-05-23T03:00:00Z,1400814000,2014,3,0,143.125,143.125,71.0478,-164.969,1020.7,1.4,-999.0,yes,yes,no,300234061367150,SVP,unknown,Healy,North
2014-05-23T04:00:28Z,1400817629,2014,4,0,143.167,143.125,71.0478,-164.969,1020.5,1.9,-999.0,yes,yes,no,300234061367150,SVP,unknown,Healy,North
2014-05-23T04:59:31Z,1400821171,2014,5,0,143.208,143.125,71.0478,-164.969,1020.4,1.5,-999.0,yes,yes,no,300234061367150,SVP,unknown,Healy,North
2014-05-23T06:00:00Z,1400824800,2014,6,0,143.25,143.25,71.1024,-164.9422,1020.5,1.2,-999.0,yes,yes,no,300234061367150,SVP,unknown,Healy,North
2014-05-23T07:00:28Z,1400828429,2014,7,0,143.292,143.25,71.1024,-164.9422,1020.4,0.7,-999.0,yes,yes,no,300234061367150,SVP,unknown,Healy,North
2014-05-23T07:59:31Z,1400831971,2014,8,0,143.333,143.25,71.1024,-164.9422,1020.6,0.1,-999.0,yes,yes,no,300234061367150,SVP,unknown,Healy,North
2014-05-23T09:00:00Z,1400835600,2014,9,0,143.375,143.375,71.2642,-164.6564,1020.7,-0.1,-999.0,yes,yes,no,300234061367150,SVP,unknown,Healy,North
2014-05-23T10:00:28Z,1400839229,2014,10,0,143.417,143.375,71.2642,-164.6564,1021.0,-1.4,-999.0,yes,yes,no,300234061367150,SVP,unknown,Healy,North
2014-05-23T10:59:31Z,1400842771,2014,11,0,143.458,143.375,71.2642,-164.6564,1021.1,-2.0,-999.0,yes,yes,no,300234061367150,SVP,unknown,Healy,North
2014-05-23T12:00:00Z,1400846400,2014,12,0,143.5,143.5,71.4254,-164.3878,1021.3,-2.7,-999.0,yes,yes,no,300234061367150,SVP,unknown,Healy,North
2014-05-23T13:00:28Z,1400850029,2014,13,0,143.542,143.5,71.4254,-164.3878,1021.3,-3.4,-999.0,yes,yes,no,300234061367150,SVP,unknown,Healy,North
2014-05-23T13:59:31Z,1400853571,2014,14,0,143.583,143.5,71.4254,-164.3878,1021.5,-3.5,-999.0,yes,yes,no,300234061367150,SVP,unknown,Healy,North
2014-05-23T15:00:00Z,1400857200,2014,15,0,143.625,143.625,71.5304,-164.2402,1021.5,-3.9,-999.0,yes,yes,no,300234061367150,SVP,unknown,Healy,North
2014-05-23T16:00:28Z,1400860829,2014,16,0,143.667,143.625,71.5304,-164.2402,1021.4,-3.7,-999.0,yes,yes,no,300234061367150,SVP,unknown,Healy,North
2014-05-23T16:59:31Z,1400864371,2014,17,0,143.708,143.625,71.5304,-164.2402,1021.7,-4.0,-999.0,yes,yes,no,300234061367150,SVP,unknown,Healy,North
2014-05-23T18:00:00Z,1400868000,2014,18,0,143.75,143.75,71.7106,-164.0824,1021.7,-3.8,-999.0,yes,yes,no,300234061367150,SVP,unknown,Healy,North
2014-05-23T19:00:28Z,1400871629,2014,19,0,143.792,143.75,71.7106,-164.0824,1021.9,-2.7,-999.0,yes,yes,no,300234061367150,SVP,unknown,Healy,North
2014-05-23T19:59:31Z,1400875171,2014,20,0,143.833,143.75,71.7106,-164.0824,1021.9,-2.8,-999.0,yes,yes,no,300234061367150,SVP,unknown,Healy,North
2014-05-23T21:00:00Z,1400878800,2014,21,0,143.875,143.875,71.7696,-164.5244,1021.9,-1.7,-999.0,yes,yes,no,300234061367150,SVP,unknown,Healy,North
2014-05-23T22:00:28Z,1400882429,2014,22,0,143.917,143.875,71.7696,-164.5244,1021.8,-0.6,-999.0,yes,yes,no,300234061367150,SVP,unknown,Healy,North
2014-05-23T22:59:31Z,1400885971,2014,23,0,143.958,143.875,71.7696,-164.5244,1021.7,-0.1,-999.0,yes,yes,no,300234061367150,SVP,unknown,Healy,North
2014-05-24T00:00:00Z,1400889600,2014,0,0,144.0,144.0,71.8738,-165.096,1021.5,-0.1,-999.0,yes,yes,no,300234061367150,SVP,unknown,Healy,North
2014-05-24T01:00:28Z,1400893229,2014,1,0,144.042,144.0,71.8738,-165.096,1021.2,0.1,-999.0,yes,yes,no,300234061367150,SVP,unknown,Healy,North
2014-05-24T01:59:31Z,1400896771,2014,2,0,144.083,144.0,71.8738,-165.096,1020.9,-0.1,-999.0,yes,yes,no,300234061367150,SVP,unknown,Healy,North
2014-05-24T03:00:00Z,1400900400,2014,3,0,144.125,144.125,71.8694,-165.165,1020.8,-1.5,-999.0,yes,yes,no,300234061367150,SVP,unknown,Healy,North
2014-05-24T04:00:28Z,1400904029,2014,4,0,144.167,144.125,71.8694,-165.165,1020.3,-0.8,-999.0,yes,yes,no,300234061367150,SVP,unknown,Healy,North
2014-05-24T04:59:31Z,1400907571,2014,5,0,144.208,144.125,71.8694,-165.165,1020.0,-0.9,-999.0,yes,yes,no,300234061367150,SVP,unknown,Healy,North
2014-05-24T06:00:00Z,1400911200,2014,6,0,144.25,144.25,71.9572,-165.787,1019.5,-1.4,-999.0,yes,yes,no,300234061367150,SVP,unknown,Healy,North
2014-05-24T07:00:28Z,1400914829,2014,7,0,144.292,144.25,71.9572,-165.787,1019.3,-2.5,-999.0,yes,yes,no,300234061367150,SVP,unknown,Healy,North
2014-05-24T07:59:31Z,1400918371,2014,8,0,144.333,144.25,71.9572,-165.787,1019.1,-3.1,-999.0,yes,yes,no,300234061367150,SVP,unknown,Healy,North
2014-05-24T09:00:00Z,1400922000,2014,9,0,144.375,144.375,72.1012,-166.2486,1018.7,-4.1,-999.0,yes,yes,no,300234061367150,SVP,unknown,Healy,North
2014-05-24T10:00:28Z,1400925629,2014,10,0,144.417,144.375,72.1012,-166.2486,1018.4,-5.1,-999.0,yes,yes,no,300234061367150,SVP,unknown,Healy,North
2014-05-24T10:59:31Z,1400929171,2014,11,0,144.458,144.375,72.1012,-166.2486,1018.1,-5.1,-999.0,yes,yes,no,300234061367150,SVP,unknown,Healy,North
2014-05-24T12:00:00Z,1400932800,2014,12,0,144.5,144.5,72.2842,-166.2908,1017.8,-5.0,-999.0,yes,yes,no,300234061367150,SVP,unknown,Healy,North
2014-05-24T13:00:28Z,1400936429,2014,13,0,144.542,144.5,72.2842,-166.2908,1017.4,-4.8,-999.0,yes,yes,no,300234061367150,SVP,unknown,Healy,North
2014-05-24T13:59:31Z,1400939971,2014,14,0,144.583,144.5,72.2842,-166.2908,1017.0,-4.8,-999.0,yes,yes,no,300234061367150,SVP,unknown,Healy,North
2014-05-24T15:00:00Z,1400943600,2014,15,0,144.625,144.625,72.3924,-166.353,1016.5,-5.0,-999.0,yes,yes,no,300234061367150,SVP,unknown,Healy,North
2014-05-24T16:00:28Z,1400947229,2014,16,0,144.667,144.625,72.3924,-166.353,1016.0,-5.0,-999.0,yes,yes,no,300234061367150,SVP,unknown,Healy,North
2014-05-24T16:59:31Z,1400950771,2014,17,0,144.708,144.625,72.3924,-166.353,1015.7,-4.9,-999.0,yes,yes,no,300234061367150,SVP,unknown,Healy,North
2014-05-24T18:00:00Z,1400954400,2014,18,0,144.75,144.75,72.543,-166.3548,1015.3,-4.6,-999.0,yes,yes,no,300234061367150,SVP,unknown,Healy,North
2014-05-24T19:00:28Z,1400958029,2014,19,0,144.792,144.75,72.543,-166.3548,1015.0,-3.9,-999.0,yes,yes,no,300234061367150,SVP,unknown,Healy,North
2014-05-24T19:59:31Z,1400961571,2014,20,0,144.833,144.75,72.543,-166.3548,1014.6,-3.5,-999.0,yes,yes,no,300234061367150,SVP,unknown,Healy,North
2014-05-24T21:00:00Z,1400965200,2014,21,0,144.875,144.875,72.5496,-166.3782,1014.3,-3.0,-999.0,yes,yes,no,300234061367150,SVP,unknown,Healy,North
2014-05-24T22:00:28Z,1400968829,2014,22,0,144.917,144.875,72.5496,-166.3782,1014.0,-2.3,-999.0,yes,yes,no,300234061367150,SVP,unknown,Healy,North
2014-05-24T22:59:31Z,1400972371,2014,23,0,144.958,144.875,72.5496,-166.3782,1013.8,-2.4,-999.0,yes,yes,no,300234061367150,SVP,unknown,Healy,North
2014-05-25T00:00:00Z,1400976000,2014,0,0,145.0,145.0,72.559,-166.4054,1013.5,-1.8,-999.0,yes,yes,no,300234061367150,SVP,unknown,Healy,North
2014-05-25T01:00:28Z,1400979629,2014,1,0,145.042,145.0,72.559,-166.4054,1013.3,-1.8,-999.0,yes,yes,no,300234061367150,SVP,unknown,Healy,North
2014-05-25T01:59:31Z,1400983171,2014,2,0,145.083,145.0,72.559,-166.4054,1012.9,-2.4,-999.0,yes,yes,no,300234061367150,SVP,unknown,Healy,North
2014-05-25T03:00:00Z,1400986800,2014,3,0,145.125,145.125,72.6206,-166.4932,1012.7,-2.5,-999.0,yes,yes,no,300234061367150,SVP,unknown,Healy,North
2014-05-25T04:00:28Z,1400990429,2014,4,0,145.167,145.125,72.6206,-166.4932,1012.3,-1.5,-999.0,yes,yes,no,300234061367150,SVP,unknown,Healy,North
2014-05-25T04:59:31Z,1400993971,2014,5,0,145.208,145.125,72.6206,-166.4932,1012.1,-2.9,-999.0,yes,yes,no,300234061367150,SVP,unknown,Healy,North
2014-05-25T06:00:00Z,1400997600,2014,6,0,145.25,145.25,72.7104,-166.6722,1012.3,-3.4,-999.0,yes,yes,no,300234061367150,SVP,unknown,Healy,North
2014-05-25T07:00:28Z,1401001229,2014,7,0,145.292,145.25,72.7104,-166.6722,1012.2,-4.0,-999.0,yes,yes,no,300234061367150,SVP,unknown,Healy,North
2014-05-25T07:59:31Z,1401004771,2014,8,0,145.333,145.25,72.7104,-166.6722,1012.1,-4.8,-999.0,yes,yes,no,300234061367150,SVP,unknown,Healy,North
2014-05-25T09:00:00Z,1401008400,2014,9,0,145.375,145.375,72.7476,-166.721,1012.3,-5.9,-999.0,yes,yes,no,300234061367150,SVP,unknown,Healy,North
2014-05-25T10:00:28Z,1401012029,2014,10,0,145.417,145.375,72.7476,-166.721,1012.4,-7.0,-999.0,yes,yes,no,300234061367150,SVP,unknown,Healy,North
2014-05-25T10:59:31Z,1401015571,2014,11,0,145.458,145.375,72.7476,-166.721,1012.4,-6.8,-999.0,yes,yes,no,300234061367150,SVP,unknown,Healy,North
2014-05-25T12:00:00Z,1401019200,2014,12,0,145.5,145.5,72.8642,-167.0084,1012.2,-6.2,-999.0,yes,yes,no,300234061367150,SVP,unknown,Healy,North
2014-05-25T13:00:28Z,1401022829,2014,13,0,145.542,145.5,72.8642,-167.0084,1012.3,-6.1,-999.0,yes,yes,no,300234061367150,SVP,unknown,Healy,North
2014-05-25T13:59:31Z,1401026371,2014,14,0,145.583,145.5,72.8642,-167.0084,1012.4,-5.7,-999.0,yes,yes,no,300234061367150,SVP,unknown,Healy,North
2014-05-25T15:00:00Z,1401030000,2014,15,0,145.625,145.625,72.9346,-167.0352,1012.3,-5.7,-999.0,yes,yes,no,300234061367150,SVP,unknown,Healy,North
2014-05-25T16:00:28Z,1401033629,2014,16,0,145.667,145.625,72.9346,-167.0352,1012.2,-5.7,-999.0,yes,yes,no,300234061367150,SVP,unknown,Healy,North
2014-05-25T16:59:31Z,1401037171,2014,17,0,145.708,145.625,72.9346,-167.0352,1012.0,-5.3,-999.0,yes,yes,no,300234061367150,SVP,unknown,Healy,North
2014-05-25T18:00:00Z,1401040800,2014,18,0,145.75,145.75,72.946,-167.0802,1012.2,-5.0,-999.0,yes,yes,no,300234061367150,SVP,unknown,Healy,North
2014-05-25T19:00:28Z,1401044429,2014,19,0,145.792,145.75,72.946,-167.0802,1012.2,-4.2,-999.0,yes,yes,no,300234061367150,SVP,unknown,Healy,North
2014-05-25T19:59:31Z,1401047971,2014,20,0,145.833,145.75,72.946,-167.0802,1012.3,-3.6,-999.0,yes,yes,no,300234061367150,SVP,unknown,Healy,North
2014-05-25T21:00:00Z,1401051600,2014,21,0,145.875,145.875,72.842,-167.4548,1012.4,-2.8,-999.0,yes,yes,no,300234061367150,SVP,unknown,Healy,North
2014-05-25T22:00:28Z,1401055229,2014,22,0,145.917,145.875,72.842,-167.4548,1012.4,-2.0,-999.0,yes,yes,no,300234061367150,SVP,unknown,Healy,North
2014-05-25T22:59:31Z,1401058771,2014,23,0,145.958,145.875,72.842,-167.4548,1012.4,-0.9,-999.0,yes,yes,no,300234061367150,SVP,unknown,Healy,North
2014-05-26T00:00:00Z,1401062400,2014,0,0,146.0,146.0,72.7956,-167.7726,1012.5,-1.4,-999.0,yes,yes,no,300234061367150,SVP,unknown,Healy,North
2014-05-26T01:00:28Z,1401066029,2014,1,0,146.042,146.0,72.7956,-167.7726,1012.4,-1.9,-999.0,yes,yes,no,300234061367150,SVP,unknown,Healy,North
2014-05-26T01:59:31Z,1401069571,2014,2,0,146.083,146.0,72.7956,-167.7726,1012.2,-1.6,-999.0,yes,yes,no,300234061367150,SVP,unknown,Healy,North
2014-05-26T03:00:00Z,1401073200,2014,3,0,146.125,146.125,72.7114,-168.1672,1012.2,-1.9,-999.0,yes,yes,no,300234061367150,SVP,unknown,Healy,North
2014-05-26T04:00:28Z,1401076829,2014,4,0,146.167,146.125,72.7114,-168.1672,1012.1,-1.8,-999.0,yes,yes,no,300234061367150,SVP,unknown,Healy,North
2014-05-26T04:59:31Z,1401080371,2014,5,0,146.208,146.125,72.7114,-168.1672,1012.0,-2.3,-999.0,yes,yes,no,300234061367150,SVP,unknown,Healy,North
2014-05-26T06:00:00Z,1401084000,2014,6,0,146.25,146.25,72.572,-168.631,1012.1,-3.4,-999.0,yes,yes,no,300234061367150,SVP,unknown,Healy,North
2014-05-26T07:00:28Z,1401087629,2014,7,0,146.292,146.25,72.572,-168.631,1012.1,-3.8,-999.0,yes,yes,no,300234061367150,SVP,unknown,Healy,North
2014-05-26T07:59:31Z,1401091171,2014,8,0,146.333,146.25,72.572,-168.631,1012.2,-4.6,-999.0,yes,yes,no,300234061367150,SVP,unknown,Healy,North
2014-05-26T09:00:00Z,1401094800,2014,9,0,146.375,146.375,72.5582,-168.8802,1012.4,-5.7,-999.0,yes,yes,no,300234061367150,SVP,unknown,Healy,North
2014-05-26T10:00:28Z,1401098429,2014,10,0,146.417,146.375,72.5582,-168.8802,1012.5,-6.0,-999.0,yes,yes,no,300234061367150,SVP,unknown,Healy,North
2014-05-26T10:59:31Z,1401101971,2014,11,0,146.458,146.375,72.5582,-168.8802,1012.5,-6.5,-999.0,yes,yes,no,300234061367150,SVP,unknown,Healy,North
2014-05-26T12:00:00Z,1401105600,2014,12,0,146.5,146.5,72.5256,-168.5338,1012.7,-7.6,-999.0,yes,yes,no,300234061367150,SVP,unknown,Healy,North
2014-05-26T13:00:28Z,1401109229,2014,13,0,146.542,146.5,72.5256,-168.5338,1013.0,-8.8,-999.0,yes,yes,no,300234061367150,SVP,unknown,Healy,North
2014-05-26T13:59:31Z,1401112771,2014,14,0,146.583,146.5,72.5256,-168.5338,1013.0,-8.7,-999.0,yes,yes,no,300234061367150,SVP,unknown,Healy,North
2014-05-26T15:00:00Z,1401116400,2014,15,0,146.625,146.625,72.516,-168.4726,1013.0,-8.1,-999.0,yes,yes,no,300234061367150,SVP,unknown,Healy,North
2014-05-26T16:00:28Z,1401120029,2014,16,0,146.667,146.625,72.516,-168.4726,1013.1,-8.0,-999.0,yes,yes,no,300234061367150,SVP,unknown,Healy,North
2014-05-26T16:59:31Z,1401123571,2014,17,0,146.708,146.625,72.516,-168.4726,1013.2,-7.5,-999.0,yes,yes,no,300234061367150,SVP,unknown,Healy,North
2014-05-26T18:00:00Z,1401127200,2014,18,0,146.75,146.75,72.443,-168.2918,1013.5,-6.5,-999.0,yes,yes,no,300234061367150,SVP,unknown,Healy,North
2014-05-26T19:00:28Z,1401130829,2014,19,0,146.792,146.75,72.443,-168.2918,1013.9,-5.4,-999.0,yes,yes,no,300234061367150,SVP,unknown,Healy,North
2014-05-26T19:59:31Z,1401134371,2014,20,0,146.833,146.75,72.443,-168.2918,1014.1,-4.3,-999.0,yes,yes,no,300234061367150,SVP,unknown,Healy,North
2014-05-26T21:00:00Z,1401138000,2014,21,0,146.875,146.875,72.438,-168.294,1014.4,-3.0,-999.0,yes,yes,no,300234061367150,SVP,unknown,Healy,North
2014-05-26T22:00:28Z,1401141629,2014,22,0,146.917,146.875,72.438,-168.294,1014.5,-2.3,-999.0,yes,yes,no,300234061367150,SVP,unknown,Healy,North
2014-05-26T22:59:31Z,1401145171,2014,23,0,146.958,146.875,72.438,-168.294,1014.6,-1.8,-999.0,yes,yes,no,300234061367150,SVP,unknown,Healy,North
2014-05-27T00:00:00Z,1401148800,2014,0,0,147.0,147.0,72.4372,-168.3012,1014.9,-1.2,-999.0,yes,yes,no,300234061367150,SVP,unknown,Healy,North
2014-05-27T01:00:28Z,1401152429,2014,1,0,147.042,147.0,72.4372,-168.3012,1015.1,-1.7,-999.0,yes,yes,no,300234061367150,SVP,unknown,Healy,North
2014-05-27T01:59:31Z,1401155971,2014,2,0,147.083,147.0,72.4372,-168.3012,1015.2,-0.8,-999.0,yes,yes,no,300234061367150,SVP,unknown,Healy,North
2014-05-27T03:00:00Z,1401159600,2014,3,0,147.125,147.125,72.3982,-168.1246,1015.4,-0.6,-999.0,yes,yes,no,300234061367150,SVP,unknown,Healy,North
2014-05-27T04:00:28Z,1401163229,2014,4,0,147.167,147.125,72.3982,-168.1246,1015.5,0.1,-999.0,yes,yes,no,300234061367150,SVP,unknown,Healy,North
2014-05-27T04:59:31Z,1401166771,2014,5,0,147.208,147.125,72.3982,-168.1246,1015.3,-0.8,-999.0,yes,yes,no,300234061367150,SVP,unknown,Healy,North
2014-05-27T06:00:00Z,1401170400,2014,6,0,147.25,147.25,72.3392,-167.5498,1015.4,-1.5,-999.0,yes,yes,no,300234061367150,SVP,unknown,Healy,North
2014-05-27T07:00:28Z,1401174029,2014,7,0,147.292,147.25,72.3392,-167.5498,1015.6,-2.2,-999.0,yes,yes,no,300234061367150,SVP,unknown,Healy,North
2014-05-27T07:59:31Z,1401177571,2014,8,0,147.333,147.25,72.3392,-167.5498,1015.7,-3.8,-999.0,yes,yes,no,300234061367150,SVP,unknown,Healy,North
2014-05-27T09:00:00Z,1401181200,2014,9,0,147.375,147.375,72.2964,-167.3456,1016.0,-4.8,-999.0,yes,yes,no,300234061367150,SVP,unknown,Healy,North
2014-05-27T10:00:28Z,1401184829,2014,10,0,147.417,147.375,72.2964,-167.3456,1016.0,-4.8,-999.0,yes,yes,no,300234061367150,SVP,unknown,Healy,North
2014-05-27T10:59:31Z,1401188371,2014,11,0,147.458,147.375,72.2964,-167.3456,1016.1,-5.9,-999.0,yes,yes,no,300234061367150,SVP,unknown,Healy,North
2014-05-27T12:00:00Z,1401192000,2014,12,0,147.5,147.5,72.1762,-166.733,1016.0,-6.2,-999.0,yes,yes,no,300234061367150,SVP,unknown,Healy,North
2014-05-27T13:00:28Z,1401195629,2014,13,0,147.542,147.5,72.1762,-166.733,1016.0,-5.6,-999.0,yes,yes,no,300234061367150,SVP,unknown,Healy,North
2014-05-27T13:59:31Z,1401199171,2014,14,0,147.583,147.5,72.1762,-166.733,1016.0,-5.4,-999.0,yes,yes,no,300234061367150,SVP,unknown,Healy,North
2014-05-27T15:00:00Z,1401202800,2014,15,0,147.625,147.625,72.1102,-166.4368,1015.9,-6.0,-999.0,yes,yes,no,300234061367150,SVP,unknown,Healy,North
2014-05-27T16:00:28Z,1401206429,2014,16,0,147.667,147.625,72.1102,-166.4368,1015.8,-5.4,-999.0,yes,yes,no,300234061367150,SVP,unknown,Healy,North
2014-05-27T16:59:31Z,1401209971,2014,17,0,147.708,147.625,72.1102,-166.4368,1015.9,-4.3,-999.0,yes,yes,no,300234061367150,SVP,unknown,Healy,North
2014-05-27T18:00:00Z,1401213600,2014,18,0,147.75,147.75,72.1628,-165.8056,1015.9,-3.6,-999.0,yes,yes,no,300234061367150,SVP,unknown,Healy,North
2014-05-27T19:00:28Z,1401217229,2014,19,0,147.792,147.75,72.1628,-165.8056,1016.1,-3.1,-999.0,yes,yes,no,300234061367150,SVP,unknown,Healy,North
2014-05-27T19:59:31Z,1401220771,2014,20,0,147.833,147.75,72.1628,-165.8056,1016.0,-2.7,-999.0,yes,yes,no,300234061367150,SVP,unknown,Healy,North
2014-05-27T21:00:00Z,1401224400,2014,21,0,147.875,147.875,72.095,-164.9886,1016.3,-1.5,-999.0,yes,yes,no,300234061367150,SVP,unknown,Healy,North
2014-05-27T22:00:28Z,1401228029,2014,22,0,147.917,147.875,72.095,-164.9886,1016.5,-1.7,-999.0,yes,yes,no,300234061367150,SVP,unknown,Healy,North
2014-05-27T22:59:31Z,1401231571,2014,23,0,147.958,147.875,72.095,-164.9886,1016.9,2.0,-999.0,yes,yes,no,300234061367150,SVP,unknown,Healy,North
2014-05-28T00:00:00Z,1401235200,2014,0,0,148.0,148.0,72.0954,-164.323,1017.1,2.7,-999.0,yes,yes,no,300234061367150,SVP,unknown,Healy,North
2014-05-28T01:00:28Z,1401238829,2014,1,0,148.042,148.0,72.0954,-164.323,1017.2,3.0,-999.0,yes,yes,no,300234061367150,SVP,unknown,Healy,North
2014-05-28T01:59:31Z,1401242371,2014,2,0,148.083,148.0,72.0954,-164.323,1017.2,2.3,-999.0,yes,yes,no,300234061367150,SVP,unknown,Healy,North
2014-05-28T03:00:00Z,1401246000,2014,3,0,148.125,148.125,72.0748,-163.5784,1017.5,1.5,-999.0,yes,yes,no,300234061367150,SVP,unknown,Healy,North
2014-05-28T04:00:28Z,1401249629,2014,4,0,148.167,148.125,72.0748,-163.5784,1017.4,0.1,-999.0,yes,yes,no,300234061367150,SVP,unknown,Healy,North
2014-05-28T04:59:31Z,1401253171,2014,5,0,148.208,148.125,72.0748,-163.5784,1017.5,-0.7,-999.0,yes,yes,no,300234061367150,SVP,unknown,Healy,North
2014-05-28T06:00:00Z,1401256800,2014,6,0,148.25,148.25,72.0754,-163.4378,1017.6,-1.7,-999.0,yes,yes,no,300234061367150,SVP,unknown,Healy,North
2014-05-28T07:00:28Z,1401260429,2014,7,0,148.292,148.25,72.0754,-163.4378,1017.8,-2.0,-999.0,yes,yes,no,300234061367150,SVP,unknown,Healy,North
2014-05-28T07:59:31Z,1401263971,2014,8,0,148.333,148.25,72.0754,-163.4378,1018.0,-3.4,-999.0,yes,yes,no,300234061367150,SVP,unknown,Healy,North
2014-05-28T09:00:00Z,1401267600,2014,9,0,148.375,148.375,72.0766,-163.0024,1018.2,-3.8,-999.0,yes,yes,no,300234061367150,SVP,unknown,Healy,North
2014-05-28T10:00:28Z,1401271229,2014,10,0,148.417,148.375,72.0766,-163.0024,1018.3,-5.0,-999.0,yes,yes,no,300234061367150,SVP,unknown,Healy,North
2014-05-28T10:59:31Z,1401274771,2014,11,0,148.458,148.375,72.0766,-163.0024,1018.4,-5.9,-999.0,yes,yes,no,300234061367150,SVP,unknown,Healy,North
2014-05-28T12:00:00Z,1401278400,2014,12,0,148.5,148.5,72.0854,-162.518,1018.4,-6.6,-999.0,yes,yes,no,300234061367150,SVP,unknown,Healy,North
2014-05-28T13:00:28Z,1401282029,2014,13,0,148.542,148.5,72.0854,-162.518,1018.5,-7.3,-999.0,yes,yes,no,300234061367150,SVP,unknown,Healy,North
2014-05-28T13:59:31Z,1401285571,2014,14,0,148.583,148.5,72.0854,-162.518,1018.4,-7.6,-999.0,yes,yes,no,300234061367150,SVP,unknown,Healy,North
2014-05-28T15:00:00Z,1401289200,2014,15,0,148.625,148.625,72.1436,-162.2126,1018.5,-8.3,-999.0,yes,yes,no,300234061367150,SVP,unknown,Healy,North
2014-05-28T16:00:28Z,1401292829,2014,16,0,148.667,148.625,72.1436,-162.2126,1018.8,-7.8,-999.0,yes,yes,no,300234061367150,SVP,unknown,Healy,North
2014-05-28T16:59:31Z,1401296371,2014,17,0,148.708,148.625,72.1436,-162.2126,1018.7,-7.0,-999.0,yes,yes,no,300234061367150,SVP,unknown,Healy,North
2014-05-28T18:00:00Z,1401300000,2014,18,0,148.75,148.75,72.2862,-162.3998,1018.9,-6.2,-999.0,yes,yes,no,300234061367150,SVP,unknown,Healy,North